This demonstration page uses our WeatherBlox Daily Observations layout. Learn more.

Left ArrowRight Arrow

44.89941, -97.11507

Hourly Observations for June 22, 2021

Temp ( °F °C ) Dew Point ( °F °C ) Humidity (%) Winds ( mph kmh ) Pressure ( in mb ) Visibility ( mi km ) Precip ( " mm )
12:53 am 00:53 Clear 52 11.1 42 5.6 69 69 E 3 6 29.94 1014 10 16 0.00 0.00
1:53 am 01:53 Clear 51 10.6 42 5.6 71 71 SE 5 7 29.94 1014 10 16 0.00 0.00
2:53 am 02:53 Clear 51 10.6 41 5 69 69 E 3 6 29.93 1013 10 16 0.00 0.00
3:53 am 03:53 Clear 51 10.6 41 5 69 69 E 3 6 29.92 1013 10 16 0.00 0.00
4:53 am 04:53 Clear 50 10 41 5 71 71 Calm 29.91 1013 10 16 0.00 0.00
5:53 am 05:53 Sunny 50 10 41 5 71 71 Calm 29.90 1013 10 16 0.00 0.00
6:53 am 06:53 Sunny 54 12.2 41 5 62 62 E 3 6 29.89 1012 10 16 0.00 0.00
7:53 am 07:53 Sunny 57 13.9 42 5.6 58 58 SE 9 15 29.88 1012 10 16 0.00 0.00
8:53 am 08:53 Sunny 61 16.1 43 6.1 52 52 SE 6 9 29.88 1012 10 16 0.00 0.00
9:53 am 09:53 Sunny 65 18.3 45 7.2 49 49 SSE 6 9 29.87 1012 10 16 0.00 0.00
10:53 am 10:53 Sunny 69 20.6 38 3.3 32 32 Calm 29.85 1011 10 16 0.00 0.00
11:53 am 11:53 Sunny 72 22.2 37 2.8 28 28 VRB 5 7 29.83 1010 10 16 0.00 0.00
12:53 pm 12:53 Sunny 76 24.4 36 2.2 23 23 NE 5 7 29.82 1010 10 16 0.00 0.00
1:53 pm 13:53 Sunny 77 25 35 1.7 22 22 VRB 3 6 29.80 1009 10 16 0.00 0.00
2:53 pm 14:53 Sunny 78 25.6 38 3.3 24 24 W 8 13 29.80 1009 10 16 0.00 0.00
3:53 pm 15:53 Sunny 79 26.1 34 1.1 20 20 WNW 7 11 29.80 1009 10 16 0.00 0.00
4:53 pm 16:53 Sunny 79 26.1 37 2.8 22 22 W 8 13 29.79 1009 10 16 0.00 0.00
5:53 pm 17:53 Sunny 79 26.1 37 2.8 22 22 WNW 7 11 29.78 1009 10 16 0.00 0.00
6:53 pm 18:53 Sunny 78 25.6 38 3.3 24 24 SW 6 9 29.77 1008 10 16 0.00 0.00
7:53 pm 19:53 Sunny 76 24.4 41 5 29 29 NW 6 9 29.77 1008 10 16 0.00 0.00
8:53 pm 20:53 Sunny 70 21.1 42 5.6 37 37 NE 5 7 29.78 1008 10 16 0.00 0.00
9:53 pm 21:53 Clear 68 20 41 5 38 38 E 5 7 29.79 1009 10 16 0.00 0.00
10:53 pm 22:53 Clear 66 18.9 45 7.2 47 47 ESE 7 11 29.79 1009 10 16 0.00 0.00
11:53 pm 23:53 Clear 63 17.2 45 7.2 52 52 SE 8 13 29.78 1008 10 16 0.00 0.00

Powered by AerisWeather